Flag for Singapore Weather past 2 weeks in Singapore, Singapore

Now
86 °F

Partly sunny.


Feels Like: 92 °F
Forecast: 74 / 92 °F
Wind: 12 mph from Northeast

Location: Singapore / Paya Lebar

Current Time: Mar 5, 2015 at 7:18:59 PM

Latest Report: Mar 5, 2015 at 6:00 PM


Visibility: N/A

Pressure: 29.77 "Hg

Humidity: 62%

Dew point: 72 °F

Location of SingaporeLocation

Historic Weather in Singapore — Graph

°F

Singapore temperature yesterday

Maximum temperature yesterday: 93 °F (at 1:00 PM)
Minimum temperature yesterday: 79 °F (at 7:00 AM)
Average temperature yesterday: 83 °F

Past Weeks' High & Low Weather Summary

 TemperatureHumidityPressure
High93 °F (Feb 23, 2:00 PM)94% (Feb 19, 7:00 AM)29.95 "Hg (Feb 19, 7:00 AM)
Low75 °F (Feb 19, 5:00 AM)49% (Feb 19, 3:00 PM)29.71 "Hg (Feb 27, 5:00 PM)
Average84 °F73%29.84 "Hg
* Reported Feb 18 6:00 PM — Mar 5 6:00 PM, Singapore, Weather by CustomWeather, © 2015

Note: Actual official high and low records may vary slightly from our data, if they occured in-between our weather recording intervals... More about our weather records

Advertising

Singapore weather history for previous 24 hours

 ConditionsComfort  
Time TempWeatherWind HumidityBarometerVisibility
6:00 PM
Thu, Mar 5
86 °FPartly sunny.12 mph62%29.77 "HgN/A
5:00 PM90 °FPartly sunny.14 mph52%29.77 "HgN/A
4:00 PM91 °FPartly sunny.14 mph49%29.77 "HgN/A
3:00 PM93 °FPartly sunny.9 mph53%29.80 "HgN/A
2:00 PM91 °FPartly sunny.9 mph52%29.83 "HgN/A
1:00 PM90 °FPartly sunny.9 mph59%29.86 "HgN/A
12:00 PM88 °FPartly sunny.8 mph66%29.89 "HgN/A
11:00 AM86 °FPartly sunny.6 mph66%29.92 "HgN/A
10:00 AM82 °FPartly sunny.8 mph79%29.92 "HgN/A
9:00 AM79 °FPartly sunny.7 mph84%29.89 "Hg6 mi
8:00 AM79 °FPartly sunny.6 mph84%29.89 "Hg5 mi
7:00 AM77 °FPassing clouds.3 mph89%29.86 "Hg4 mi
6:00 AM77 °FPassing clouds.6 mph89%29.86 "HgN/A
5:00 AM77 °FPassing clouds.3 mph89%29.86 "HgN/A
11:00 PM
Wed, Mar 4
81 °FPartly cloudy.3 mph84%29.89 "HgN/A
10:00 PM81 °FPassing clouds.8 mph84%29.86 "HgN/A
9:00 PM81 °FPassing clouds.5 mph84%29.86 "HgN/A
8:00 PM79 °FPassing clouds.5 mph89%29.83 "HgN/A
7:00 PM79 °FScattered clouds.5 mph84%29.80 "HgN/A
Weather by CustomWeather, © 2015

See weather overviewHow to use our weather pages